Notices

Please take our survey and provide feedback: https://eccc.sondage-survey.ca/f/LanguageSelection.aspx?s=442ca660-fcf1-47c0-95a9-59707d6fd709

Please note that for the Engineering Climate Datasets, IDF dataset is available through this link.  Intensity-Duration-Frequency (IDF) Files: Includes the latest version of short-duration rainfall Intensity-Duration-Frequency (IDF) statistics in the form of tables and graphs with accompanying documentation for various locations across Canada.  Current IDF files can be accessed through our station finder application or downloaded for each province and territory across Canada.  In addition, historical versions of IDF files are also available for download.  Updates of IDF files are provided approximately every two years depending on the availability of data.   Thank you for your patience as we enhance our systems.

Hourly Data Report for March 03, 2012

HALIFAX STANFIELD INT'L A
NOVA SCOTIA

44°52'48.060" N
63°30'00.050" W
145.40 m
8202250
71395
YHZ

Download Data

Hourly Data (March 2012)
Hourly Data Report for March 3, 2012
TIME
LST
Temp Definition
°C
Dew Point Definition
°C
Rel Hum Definition
%
Precip. Amount Definition
mm

Wind Dir Definition
10's deg

Wind Spd Definition
km/h
Visibility Definition
km
Stn Press Definition
kPa
Hmdx Definition


Wind Chill Definition


Weather Definition


00:00 -4.6 -7.3 81   9 6 24.1 100.21   -7 Cloudy
01:00 -4.7 -7.4 81   16 6 24.1 100.20   -7 Cloudy
02:00 -4.8 -7.2 83   16 6 24.1 100.16   -8 Cloudy
03:00 -4.6 -7.3 81   18 6 24.1 100.16   -7 Cloudy
04:00 -4.7 -7.2 83   13 9 24.1 100.10   -9 Cloudy
05:00 -4.4 -7.1 81   17 4 24.1 100.06   -6 Cloudy
06:00 -4.4 -6.9 83   12 13 24.1 99.97   -9 Cloudy
07:00 -4.7 -7.1 83   9 11 24.1 99.88   -9 Cloudy
08:00 -4.0 -6.8 81   12 13 24.1 99.85   -9 Cloudy
09:00 -3.2 -5.4 85   15 17 24.1 99.87   -9 Cloudy
10:00 -2.2 -4.0 87   13 19 16.1 99.77   -8 Cloudy
11:00 -0.5 -2.7 85   14 24 24.1 99.64   -6 Cloudy
12:00 0.4 -1.6 86   14 26 24.1 99.52     Cloudy
13:00 0.9 -1.0 87   15 41 24.1 99.32     Cloudy
14:00 0.4 -0.5 94   14 44 4.8 99.07     Rain,Ice Pellets,Fog
15:00 0.9 0.4 96   14 39 1.6 98.81     Drizzle,Fog
16:00 1.6 1.4 99   14 41 1.6 98.57     Rain,Fog
17:00 2.5 2.2 98   14 41 1.6 98.27     Rain,Fog
18:00 2.9 2.7 99   14 44 1.6 98.02     Moderate Rain,Fog
19:00 4.3 4.3 100   14 43 1.6 97.76     Moderate Rain,Fog
20:00 6.3 6.2 99   16 48 2.4 97.53     Moderate Rain,Fog
21:00 7.2 7.2 100   20 33 2.4 97.49     Rain,Fog
22:00 7.3 7.3 100   22 26 0.8 97.48     Fog
23:00 6.7 6.7 100   22 22 0.6 97.51     Fog

Notes on Data Quality.

Legend

  • E = Estimated
  • M = Missing
  • NA = Not Available*
  • [empty] = Indicates an unobserved value
Date modified: